GW5950 Weather Reports


time (UTC)temp
F
wind
direction
speed
knots
gust
knots
rain 1hr
in
rain 24hr
in
rain mn
in
humidity
%
barometer
mb
20260505003748 62 237 4.3 4.3 0.00 0.00 0.00 50 1008.0
20260505003246 62 233 2.6 7.8 0.00 0.00 0.00 50 1008.0
20260505002742 62 247 3.5 3.5 0.00 0.00 0.00 49 1008.0
20260505002239 63 219 3.5 8.7 0.00 0.00 0.00 48 1007.7
20260505001737 63 222 6.1 10.4 0.00 0.00 0.00 48 1007.6
20260505001234 63 195 1.7 4.3 0.00 0.00 0.00 48 1007.4
20260505000731 63 243 2.6 9.6 0.00 0.00 0.00 48 1007.3
20260505000229 63 51 0.0 5.2 0.00 0.00 0.00 48 1007.3
20260504235725 64 76 0.0 5.2 0.00 0.00 0.00 47 1007.1
20260504235221 64 231 1.7 9.6 0.00 0.00 0.00 46 1006.9
20260504234719 65 200 3.5 11.3 0.00 0.00 0.00 45 1006.9
20260504234216 65 257 3.5 7.8 0.00 0.00 0.00 46 1006.9
20260504233712 65 253 3.5 6.1 0.00 0.00 0.00 45 1006.8
20260504233208 65 228 3.5 5.2 0.00 0.00 0.00 45 1006.9
20260504232705 66 230 1.7 4.3 0.00 0.00 0.00 44 1006.5
20260504232202 66 226 7.8 9.6 0.00 0.00 0.00 43 1006.6
20260504231659 67 234 6.1 6.1 0.00 0.00 0.00 42 1006.2
20260504231155 67 260 3.5 8.7 0.00 0.00 0.00 41 1006.3
20260504230651 67 313 1.7 7.8 0.00 0.00 0.00 41 1006.1
20260504230150 68 228 3.5 7.8 0.00 0.00 0.00 40 1006.2
20260504225648 68 189 4.3 9.6 0.00 0.00 0.00 39 1006.0
20260504225144 69 230 6.1 6.1 0.00 0.00 0.00 38 1006.0
20260504224641 70 253 3.5 8.7 0.00 0.00 0.00 36 1005.9
20260504224137 70 320 0.9 7.8 0.00 0.00 0.00 36 1005.9
20260504223635 71 262 4.3 8.7 0.00 0.00 0.00 33 1005.7
20260504223131 71 190 7.0 8.7 0.00 0.00 0.00 32 1005.6
20260504222628 71 210 3.5 4.3 0.00 0.00 0.00 33 1005.7
20260504222125 71 226 2.6 6.1 0.00 0.00 0.00 33 1005.7
20260504221622 71 38 0.0 6.1 0.00 0.00 0.00 34 1005.7
20260504221119 72 327 1.7 7.8 0.00 0.00 0.00 33 1005.7
20260504220615 72 26 0.9 5.2 0.00 0.00 0.00 33 1005.6
20260504220113 71 273 1.7 6.1 0.00 0.00 0.00 33 1005.7
20260504215609 71 259 3.5 7.8 0.00 0.00 0.00 33 1005.8
20260504215107 71 317 2.6 8.7 0.00 0.00 0.00 33 1005.8
20260504214602 72 209 0.0 5.2 0.00 0.00 0.00 32 1005.6
20260504214059 71 273 5.2 7.8 0.00 0.00 0.00 32 1005.6
20260504213555 72 278 0.0 7.8 0.00 0.00 0.00 32 1005.6
20260504213052 72 218 4.3 6.1 0.00 0.00 0.00 32 1005.8
20260504212548 72 3 1.7 6.1 0.00 0.00 0.00 32 1005.7
20260504212046 72 208 6.1 7.0 0.00 0.00 0.00 31 1005.7
20260504211543 73 280 3.5 8.7 0.00 0.00 0.00 32 1005.7
20260504211039 74 224 3.5 3.5 0.00 0.00 0.00 32 1005.5
20260504210536 73 157 0.0 7.0 0.00 0.00 0.00 31 1005.7
20260504210033 73 263 4.3 7.8 0.00 0.00 0.00 32 1005.6
20260504205531 72 208 4.3 8.7 0.00 0.00 0.00 32 1005.6
20260504205029 72 251 4.3 7.8 0.00 0.00 0.00 33 1005.6
20260504204527 71 245 4.3 11.3 0.00 0.00 0.00 33 1005.8
20260504204026 71 282 3.5 5.2 0.00 0.00 0.00 32 1005.7
20260504203523 70 184 7.8 8.7 0.00 0.00 0.00 32 1005.7
20260504203020 70 199 6.1 9.6 0.00 0.00 0.00 33 1005.7
20260504202516 71 198 1.7 6.1 0.00 0.00 0.00 32 1005.7
20260504202013 72 327 5.2 10.4 0.00 0.00 0.00 32 1005.8
20260504201510 71 225 11.3 12.2 0.00 0.00 0.00 31 1005.9
20260504201008 71 248 5.2 7.8 0.00 0.00 0.00 32 1005.8
20260504200504 72 293 1.7 7.0 0.00 0.00 0.00 32 1005.6
20260504200000 71 238 4.3 11.3 0.00 0.00 0.00 32 1005.9
20260504195456 72 195 3.5 10.4 0.00 0.00 0.00 31 1005.7
20260504194953 71 290 5.2 7.8 0.00 0.00 0.00 32 1005.9
20260504194449 71 185 3.5 9.6 0.00 0.00 0.00 31 1005.8
20260504193945 71 303 4.3 7.8 0.00 0.00 0.00 31 1005.8
20260504193443 71 278 3.5 7.8 0.00 0.00 0.00 30 1005.9
20260504192941 71 160 0.0 4.3 0.00 0.00 0.00 33 1005.7
20260504192438 71 278 3.5 9.6 0.00 0.00 0.00 33 1005.7
20260504191937 71 301 1.7 12.2 0.00 0.00 0.00 31 1005.8
20260504191435 71 303 9.6 12.2 0.00 0.00 0.00 30 1005.9
20260504190935 71 241 7.8 13.0 0.00 0.00 0.00 31 1006.1
20260504190431 71 323 3.5 8.7 0.00 0.00 0.00 31 1006.1
20260504185928 71 326 7.8 10.4 0.00 0.00 0.00 30 1006.0
20260504185426 72 267 5.2 5.2 0.00 0.00 0.00 31 1006.0
20260504184921 71 231 2.6 5.2 0.00 0.00 0.00 32 1006.2
20260504184417 70 8 0.9 9.6 0.00 0.00 0.00 31 1006.4
20260504183913 70 291 5.2 7.8 0.00 0.00 0.00 32 1006.6
20260504183411 71 165 6.1 7.8 0.00 0.00 0.00 31 1006.3
20260504182909 71 190 3.5 14.8 0.00 0.00 0.00 31 1006.4
20260504182405 70 198 6.1 19.1 0.00 0.00 0.00 30 1006.3
20260504181902 70 141 6.1 19.1 0.00 0.00 0.00 31 1006.5
20260504181359 71 293 5.2 7.0 0.00 0.00 0.00 31 1006.3
20260504180858 70 322 2.6 13.0 0.00 0.00 0.00 33 1006.3
20260504180356 70 220 3.5 7.8 0.00 0.00 0.00 32 1006.5
20260504175854 70 249 5.2 7.8 0.00 0.00 0.00 31 1006.6
20260504175351 70 240 2.6 12.2 0.00 0.00 0.00 32 1006.5
20260504174849 69 290 4.3 16.5 0.00 0.00 0.00 32 1006.6
20260504174346 69 243 7.8 13.0 0.00 0.00 0.00 32 1006.6
20260504173843 70 350 0.0 9.6 0.00 0.00 0.00 32 1006.6
20260504173340 69 181 2.6 8.7 0.00 0.00 0.00 33 1006.8
20260504172837 69 269 7.0 10.4 0.00 0.00 0.00 33 1006.7
20260504172333 68 258 7.0 13.9 0.00 0.00 0.00 33 1007.0
20260504171829 69 209 7.8 10.4 0.00 0.00 0.00 33 1007.0
20260504171326 69 241 6.1 9.6 0.00 0.00 0.00 33 1006.7
20260504170824 69 276 4.3 11.3 0.00 0.00 0.00 32 1007.0
20260504170320 68 131 4.3 7.8 0.00 0.00 0.00 36 1007.0
20260504160239 66 210 13.9 15.6 0.00 0.00 0.00 36 1007.8
20260504150704 67 201 7.0 7.8 0.00 0.00 0.00 35 1008.1
20260504150201 66 292 2.6 12.2 0.00 0.00 0.00 37 1008.3
20260504141130 64 266 1.7 5.2 0.00 0.00 0.00 39 1008.6
20260504140627 64 258 2.6 4.3 0.00 0.00 0.00 40 1008.4
20260504140122 63 215 4.3 4.3 0.00 0.00 0.00 41 1008.5
20260504130551 59 212 1.7 4.3 0.00 0.00 0.00 47 1009.5
20260504110438 50 219 0.9 4.3 0.00 0.00 0.00 53 1009.8
20260504100355 47 278 0.0 3.5 0.00 0.00 0.00 58 1009.6
20260504081748 46 217 2.6 2.6 0.00 0.00 0.00 60 1009.7
20260504081244 45 181 1.7 2.6 0.00 0.00 0.00 62 1009.6
20260504080741 46 89 0.0 1.7 0.00 0.00 0.00 63 1009.4
20260504080237 46 142 0.9 3.5 0.00 0.00 0.00 60 1009.4
20260504070205 45 187 1.7 2.6 0.00 0.00 0.00 62 1009.4
20260504060125 40 54 0.0 0.9 0.00 0.00 0.00 80 1009.4
20260504050554 36 93 0.0 0.0 0.00 0.00 0.00 85 1009.6
20260504045547 36 110 0.0 0.9 0.00 0.00 0.00 86 1009.4
20260504045042 35 3 0.0 2.6 0.00 0.00 0.00 85 1009.6
20260504044540 35 67 0.9 1.7 0.00 0.00 0.00 87 1009.7
20260504044037 34 70 0.9 1.7 0.00 0.00 0.00 87 1009.5
20260504043534 34 218 0.0 0.0 0.00 0.00 0.00 87 1009.6
20260504043032 34 55 0.0 0.0 0.00 0.00 0.00 86 1009.7
20260504042528 34 89 0.0 0.9 0.00 0.00 0.00 86 1009.7
20260504042025 34 32 0.0 1.7 0.00 0.00 0.00 87 1009.5
20260504041521 34 51 0.9 0.9 0.00 0.00 0.00 87 1009.4
20260504041017 34 89 0.0 0.9 0.00 0.00 0.00 87 1009.5
20260504040515 34 66 0.0 0.0 0.00 0.00 0.00 87 1009.5
20260504040012 34 131 0.0 0.9 0.00 0.00 0.00 86 1009.4
20260504035509 34 86 0.9 1.7 0.00 0.00 0.00 86 1009.5
20260504035005 34 66 0.9 0.9 0.00 0.00 0.00 85 1009.3
20260504034502 34 76 0.9 1.7 0.00 0.00 0.00 85 1009.4
20260504033959 35 66 0.0 0.9 0.00 0.00 0.00 84 1009.2
20260504033457 35 113 0.0 1.7 0.00 0.00 0.00 84 1009.3
20260504032954 35 80 0.0 0.9 0.00 0.00 0.00 83 1009.2
20260504032451 35 119 0.0 1.7 0.00 0.00 0.00 82 1009.4
20260504031948 35 89 0.0 0.9 0.00 0.00 0.00 83 1009.0
20260504031445 35 75 0.9 0.9 0.00 0.00 0.00 82 1009.1
20260504030941 35 89 0.0 0.9 0.00 0.00 0.00 81 1009.1
20260504030438 35 104 0.0 0.9 0.00 0.00 0.00 80 1009.1
20260504025934 35 62 0.0 0.0 0.00 0.00 0.00 80 1009.2
20260504025431 35 89 0.0 1.7 0.00 0.00 0.00 79 1009.0
20260504024928 36 105 0.0 0.9 0.00 0.00 0.00 80 1008.9
20260504024425 36 103 0.0 0.9 0.00 0.00 0.00 79 1008.9
20260504023922 36 119 0.0 0.9 0.00 0.00 0.00 77 1008.9
20260504023419 36 66 0.0 1.7 0.00 0.00 0.00 76 1009.0
20260504022914 37 56 0.9 1.7 0.00 0.00 0.00 75 1008.8
20260504022411 37 56 0.0 1.7 0.00 0.00 0.00 75 1008.7
20260504021908 37 66 0.0 0.9 0.00 0.00 0.00 76 1009.0
20260504021405 37 69 0.9 1.7 0.00 0.00 0.00 75 1009.0
20260504020902 38 87 0.9 0.9 0.00 0.00 0.00 74 1009.0
20260504020359 38 113 0.0 0.0 0.00 0.00 0.00 73 1008.9
20260504015854 39 77 0.9 1.7 0.00 0.00 0.00 73 1008.9
20260504015351 39 147 0.0 0.9 0.00 0.00 0.00 71 1008.8
20260504014847 39 107 0.0 0.9 0.00 0.00 0.00 69 1008.7
20260504014343 39 89 0.0 0.0 0.00 0.00 0.00 70 1008.8
20260504013841 40 44 0.0 0.9 0.00 0.00 0.00 66 1008.6
20260504013339 40 87 0.9 0.9 0.00 0.00 0.00 64 1008.5
20260504012835 41 109 0.0 0.9 0.00 0.00 0.00 66 1008.6
20260504012333 41 124 0.0 0.0 0.00 0.00 0.00 66 1008.6
20260504011830 42 62 1.7 1.7 0.00 0.00 0.00 59 1008.5
20260504011327 42 62 1.7 1.7 0.00 0.00 0.00 59 1008.4
20260504010822 42 62 1.7 1.7 0.00 0.00 0.00 59 1008.4
20260504010318 42 62 1.7 1.7 0.00 0.00 0.00 59 1008.3
20260504005815 42 66 0.9 0.9 0.00 0.00 0.00 59 1008.2
20260504005312 43 70 0.0 1.7 0.00 0.00 0.00 60 1008.1
20260504004810 43 89 0.0 0.9 0.00 0.00 0.00 58 1008.1
20260504004307 44 89 0.0 0.9 0.00 0.00 0.00 57 1008.0